N4WIB Weather Reports


time (UTC)temp
F
wind
direction
speed
knots
gust
knots
rain 1hr
in
rain 24hr
in
rain mn
in
humidity
%
barometer
mb
20260506001534 74 255 0.0 4.3 0.00 0.00 0.00 34 1009.6
20260506000037 74 229 0.0 7.0 0.00 0.00 0.00 35 1009.6
20260505234554 75 213 0.0 7.0 0.00 0.00 0.00 35 1009.4
20260505233034 75 259 0.0 6.1 0.00 0.00 0.00 36 1009.3
20260505231532 76 242 0.0 6.1 0.00 0.00 0.00 37 1009.2
20260505230030 76 205 0.0 6.1 0.00 0.00 0.00 36 1009.3
20260505224532 76 215 0.0 0.9 0.00 0.00 0.00 37 1009.4
20260505223027 76 40 0.0 4.3 0.00 0.00 0.00 36 1009.6
20260505221527 77 222 0.0 6.1 0.00 0.00 0.00 35 1009.7
20260505220026 77 204 0.0 6.1 0.00 0.00 0.00 34 1009.6
20260505214527 78 188 0.0 4.3 0.00 0.00 0.00 33 1009.7
20260505213023 78 242 0.0 4.3 0.00 0.00 0.00 31 1009.9
20260505211535 78 245 0.0 5.2 0.00 0.00 0.00 31 1009.9
20260505210021 77 270 0.0 7.8 0.00 0.00 0.00 30 1009.9
20260505204524 77 220 0.9 8.7 0.00 0.00 0.00 31 1010.2
20260505203018 77 243 0.0 3.5 0.00 0.00 0.00 32 1010.4
20260505201516 76 13 0.0 6.1 0.00 0.00 0.00 35 1010.7
20260505200013 75 275 0.0 3.5 0.00 0.00 0.00 35 1010.9
20260505194513 75 234 0.0 2.6 0.00 0.00 0.00 35 1011.0
20260505193012 76 325 0.0 4.3 0.00 0.00 0.00 33 1011.2
20260505191509 75 273 0.0 6.1 0.00 0.00 0.00 34 1011.5
20260505190012 75 196 0.0 7.8 0.00 0.00 0.00 35 1011.7
20260505184508 75 221 0.0 10.4 0.00 0.00 0.00 41 1011.9
20260505183005 75 310 0.9 7.0 0.00 0.00 0.00 36 1012.3
20260505181505 75 235 0.0 7.8 0.00 0.00 0.00 38 1012.6
20260505180003 75 195 0.0 5.2 0.00 0.00 0.00 36 1012.7
20260505174503 76 236 0.0 4.3 0.00 0.00 0.00 37 1013.0
20260505173000 75 215 0.0 2.6 0.00 0.00 0.00 38 1013.1
20260505171600 74 259 0.0 5.2 0.00 0.00 0.00 38 1013.3
20260505170059 74 235 0.0 9.6 0.00 0.00 0.00 38 1013.5
20260505164603 74 187 0.9 8.7 0.00 0.00 0.00 36 1013.9
20260505163058 74 246 0.9 10.4 0.00 0.00 0.00 38 1014.0
20260505161556 74 231 0.0 2.6 0.00 0.00 0.00 43 1014.0
20260505153052 71 202 0.0 4.3 0.00 0.00 0.00 43 1014.0
20260505151547 70 145 0.0 6.1 0.00 0.00 0.00 44 1013.8
20260505124521 58 282 0.0 0.0 0.00 0.00 0.00 64 1013.7
20260505123021 57 282 0.0 0.0 0.00 0.00 0.00 69 1013.6
20260505121516 56 282 0.0 0.0 0.00 0.00 0.00 68 1013.5
20260505120016 55 282 0.0 0.0 0.00 0.00 0.00 67 1013.6
20260505114508 55 252 0.0 0.0 0.00 0.00 0.00 65 1013.3
20260505113005 55 253 0.0 0.0 0.00 0.00 0.00 64 1013.3
20260505111503 55 253 0.0 0.0 0.00 0.00 0.00 63 1013.0
20260505101558 56 253 0.0 0.0 0.00 0.00 0.00 60 1012.8
20260505100055 56 253 0.0 0.0 0.00 0.00 0.00 59 1012.8
20260505094559 57 253 0.0 0.0 0.00 0.00 0.00 58 1012.9
20260505093054 58 253 0.0 0.0 0.00 0.00 0.00 57 1013.0
20260505091545 59 253 0.0 0.0 0.00 0.00 0.00 56 1013.0
20260505090041 59 252 0.0 0.0 0.00 0.00 0.00 54 1012.8
20260505084539 60 252 0.0 0.0 0.00 0.00 0.00 52 1012.5
20260505083045 61 252 0.0 0.0 0.00 0.00 0.00 51 1012.3
20260505081535 61 252 0.0 0.0 0.00 0.00 0.00 51 1012.3
20260505080034 62 221 0.0 2.6 0.00 0.00 0.00 50 1012.2
20260505074533 62 234 0.0 2.6 0.00 0.00 0.00 49 1012.2
20260505073032 63 253 0.0 5.2 0.00 0.00 0.00 48 1012.2
20260505071533 63 211 0.0 0.0 0.00 0.00 0.00 49 1012.3
20260505070030 63 235 0.0 3.5 0.00 0.00 0.00 48 1012.3
20260505064529 63 259 0.0 3.5 0.00 0.00 0.00 48 1012.4
20260505063029 63 211 0.0 0.9 0.00 0.00 0.00 49 1012.3
20260505061534 63 238 0.0 1.7 0.00 0.00 0.00 49 1012.3
20260505060029 63 323 0.0 7.0 0.00 0.00 0.00 50 1012.2
20260505054540 62 227 0.0 4.3 0.00 0.00 0.00 51 1012.4
20260505053027 63 215 0.0 2.6 0.00 0.00 0.00 52 1012.4
20260505051525 62 259 0.0 2.6 0.00 0.00 0.00 52 1012.2
20260505041521 63 246 0.0 0.0 0.00 0.00 0.00 53 1012.1
20260505040035 63 247 0.0 0.0 0.00 0.00 0.00 52 1012.2
20260505034525 64 247 0.0 0.0 0.00 0.00 0.00 50 1012.2
20260505033017 65 247 0.0 0.0 0.00 0.00 0.00 49 1012.1
20260505031516 65 247 0.0 0.0 0.00 0.00 0.00 47 1012.3
20260505030017 66 248 0.0 0.0 0.00 0.00 0.00 46 1012.3
20260505024515 67 224 0.0 0.9 0.00 0.00 0.00 45 1012.4
20260505023014 67 238 0.0 0.0 0.00 0.00 0.00 44 1012.4
20260505021514 68 280 0.0 0.0 0.00 0.00 0.00 44 1012.4
20260505020014 68 272 0.0 0.0 0.00 0.00 0.00 43 1012.2
20260505014515 69 259 0.9 7.0 0.00 0.00 0.00 43 1012.2
20260505013012 69 235 0.0 0.0 0.00 0.00 0.00 44 1012.2
20260505011511 70 236 0.0 2.6 0.00 0.00 0.00 44 1012.0
20260505010010 70 211 0.0 4.3 0.00 0.00 0.00 43 1011.9
20260505004515 71 236 0.0 0.0 0.00 0.00 0.00 41 1011.7
20260505003010 72 266 0.0 0.9 0.00 0.00 0.00 40 1011.6